Regional Weather Roundup
Issued by NWS Wakefield, VA

Home | Current Version | Previous Version | Text Only | Print | Product List | Glossary On
Versions: 1 2 3 4 5 6 7 8 9 10 11 12 13 14 15 16 17 18 19 20 21 22 23 24 25 26 27 28 29 30 31 32 33 34 35 36 37 38 39 40 41 42 43 44 45 46 47 48 49 50
000
ASUS41 KAKQ 210215
RWRAKQ

REGIONAL WEATHER ROUNDUP
NATIONAL WEATHER SERVICE WAKEFIELD VA
1000 PM EDT FRI APR 20 2018

Note: "fair" indicates few or no clouds below 12,000 feet with no
significant weather and/or obstructions to visibility. * = Denotes
station may not report precipitation (e.g., rain,snow,etc.),
thunder or fog.

VAZ042-051-052>054-056-210300-
NORTHERN VIRGINIA

CITY           SKY/WX    TMP DP  RH WIND       PRES   REMARKS
WASH NATIONAL  FAIR      53  26  35 N7        30.36R
DULLES         FAIR      51  26  37 NW9       30.35R
FORT BELVOIR   FAIR      53  26  35 N3        30.35R
QUANTICO       FAIR      52  28  39 N5        30.37R
FREDERICKSBRG* FAIR      54  29  37 N6        30.35R
STAFFORD*      FAIR      50  27  41 NW6       30.39R
WARRENTON      FAIR      48  23  36 N6        30.36R
CULPEPER*      FAIR      46  27  47 CALM      30.38R
MANASSAS*      FAIR      48  27  44 N3        30.36R
LEESBURG*      FAIR      50  30  46 N8        30.37R
WINCHESTER     FAIR      46  23  39 NW6       30.38R
FRONT ROYAL*   FAIR      50  23  34 NW3       30.36R
LURAY*         FAIR      50  23  34 N7        30.37R
$$

VAZ048-049-060>072-079>083-210300-
CENTRAL AND SOUTH CENTRAL VIRGINIA

CITY           SKY/WX    TMP DP  RH WIND       PRES   REMARKS
RICHMOND       FAIR      51  28  41 NE3       30.35R
CHESTERFIELD*  FAIR      44  29  55 CALM      30.35R
PETERSBURG*    FAIR      38  31  73 CALM      30.35R
HANOVER        FAIR      47  28  47 N3        30.36R
TAPPAHANNOCK*  FAIR      47  31  54 CALM      30.36R
QUINTON*       FAIR      49  29  44 E3        30.34R
CHARLOTTSVILLE FAIR      54  21  27 N3        30.35R
GORDONSVILLE*  FAIR      52  24  33 CALM      30.35R
ORANGE*        FAIR      43  32  65 CALM      30.35R
LOUISA*        FAIR      42  25  51 NE3       30.39R
BUMPASS*       FAIR      46  27  46 CALM      30.35R
FARMVILLE*     FAIR      47  25  41 CALM      30.34R
CREWE*         FAIR      44  32  63 CALM      30.34R
FORT PICKETT*  FAIR      52  24  33 CALM      30.34R
CHASE CITY*    FAIR      44  30  57 CALM      30.33R
CLARKSVILLE*   FAIR      46  32  57 CALM      30.32S
SOUTH HILL*    FAIR      45  32  62 CALM      30.39R
LAWRENCEVILLE* FAIR      46  30  54 CALM      30.33R
EMPORIA*       FAIR      43  34  70 CALM      30.36R
$$

VAZ088>098-210300-
SOUTHEAST VIRGINIA

CITY           SKY/WX    TMP DP  RH WIND       PRES   REMARKS
NORFOLK        FAIR      48  35  60 S5        30.35R
VIRGINIA BEACH FAIR      46  37  71 CALM      30.35R
NORFOLK NAVAL  FAIR      46  35  65 S3        30.36R
WEST POINT*    FAIR      43  32  64 CALM      30.37R
SALUDA*        FAIR      42  38  86 CALM      30.35R
NEWPORT NEWS   FAIR      44  36  73 CALM      30.35R
LANGLEY AFB    FAIR      46  37  69 E5        30.35R
FORT EUSTIS    FAIR      48  36  61 CALM      30.33R
WILLIAMSBURG*  FAIR      46  36  66 CALM      30.36R
HR EXEC AP*    FAIR      44  36  73 SE3       30.36R
FRANKLIN*      FAIR      41  35  77 CALM      30.35R
US460-WAKEFLD  FAIR      45  33  63 CALM      30.35R
$$

VAZ020-022-025-037-045-210300-
WEST CENTRAL AND SOUTHWEST VIRGINIA

CITY           SKY/WX    TMP DP  RH WIND       PRES   REMARKS
STAUNTON*      NOT AVBL
WAYNESBORO*    FAIR      47  22  37 NW5       30.36R
HOT SPRINGS VA FAIR      41  10  28 NW9       30.36R
LYNCHBURG      FAIR      46  25  43 CALM      30.34R
DANVILLE       FAIR      42  30  62 CALM      30.33R
SOUTH BOSTON*  FAIR      44  29  55 CALM      30.33R
MARTINSVILLE   FAIR      43  26  50 CALM      30.36S
ROANOKE        FAIR      53  20  27 N9        30.37R
BLACKSBURG     FAIR      46  22  38 CALM      30.39S
DUBLIN*        FAIR      50  17  26 N5        30.37S
MARION*        FAIR      45  23  41 CALM      30.38S
HILLSVILLE*    FAIR      46  18  33 N7        30.33S
RICHLANDS*     FAIR      48 -16   6 N5        30.37S
WISE*          FAIR      46  21  36 N6        30.37S
ABINGDON*      FAIR      50  21  32 CALM      30.35S
$$

MDZ021>025-VAZ099-100-210300-
SOUTHERN MARYLAND AND THE DELMARVA PENINSULA

CITY           SKY/WX    TMP DP  RH WIND       PRES   REMARKS
PATUXENT RIVER FAIR      45  36  70 SW3       30.35R
BAY BRIDGE APT FAIR      50  39  66 W3        30.34R
LEONARDTOWN    FAIR      45  32  61 CALM      30.37R
DOVER          NOT AVBL
GEORGETOWN     FAIR      45  32  60 CALM      30.35R
EASTON         CLEAR     46  30  53 CALM      30.38R
CAMBRIDGE      CLEAR     43  36  75 CALM      30.35R
SALISBURY      FAIR      41  33  73 CALM      30.34R
TANGIER        FAIR      50  34  53 CALM      30.35R
OCEAN CITY     FAIR      46  37  71 S3        30.35R
WALLOPS ISLAND FAIR      46  41  82 SE5       30.36R
ACCOMACK*      FAIR      42  33  71 CALM      30.35R
$$

NCZ012>017-030>032-210300-
NORTH CENTRAL AND EASTERN NORTH CAROLINA

CITY           SKY/WX    TMP DP  RH WIND       PRES   REMARKS
ROANOKE RAPIDS FAIR      45  32  61 CALM      30.34R
RALEIGH        FAIR      50  32  50 CALM      30.34R
ELIZABETH CITY FAIR      48  38  68 E8        30.36R
AHOSKIE*       FAIR      43  34  71 CALM      30.35R
EDENTON*       FAIR      51  42  71 SE6       30.36R
CURRITUCK*     NOT AVBL
KILL DEVIL HLS FAIR      45  34  66 CALM      30.35R
MANTEO         FAIR      45  35  67 CALM      30.37R
CAPE HATTERAS  FAIR      46  38  73 NE6       30.36R
TARBORO*       NOT AVBL
GOLDSBORO      FAIR      47  36  65 E3        30.32R
WASHINGTON     FAIR      47  36  64 CALM      30.35R
GREENVILLE     FAIR      46  36  66 CALM      30.35R
NEW BERN       FAIR      45  38  76 E3        30.36R
WILMINGTON     FAIR      49  41  74 CALM      30.35R
$$

VAZ048-210300-
ELSEWHERE

CITY           SKY/WX    TMP DP  RH WIND       PRES   REMARKS
HARRISBURG PA  FAIR      47  25  42 N6        30.37R
BALTIMORE      FAIR      48  27  44 W3        30.33R
ANNAPOLIS      FAIR      51  38  60 CALM      30.34R
ANDREWS AFB    FAIR      48  26  41 N7        30.34R
PHILADELPHIA   FAIR      45  23  42 N15G23    30.38R
HENDERSON NC   FAIR      45  29  53 CALM      30.33R
GREENSBORO     FAIR      54  26  34 E3        30.32R
ROCKY MOUNT    FAIR      45  34  65 CALM      30.34R
$$

VAZ100-210300-
MARINE

STATION/POSITION TIME  TEMP    WIND        PRES    WAVE   SWELL
                       AIR SEA DIR/SP/G            HT/PER HT/PER
                 (UTC) (F)     (DEG/KT/KT) (MB)    (FT/S) (FT/S)
BRANDYWINE LGT   0142   50      10/ 14/ 17 1027.8R
CAPE MAY NJ      0148   49 50   10/  4/  9 1027.0R
LEWES DE         0142   51 50   20/  7/ 10 1027.5R
15NM E FENWICK I 0150   47 46  310/  6/  8 1027.8R   2/ 4   2/ 4
OCEAN-CITY-INLET 0142   47 50  200/  5/  7 1028.0R
WACHAPREAGUE VA  0142   46 55  290/  2/  2 1027.7R
THOMAS POINT MD  0200   54 50  310/  6/  6 1028.4R
GOOSES REEF MD   0200   52     350/  4/  4 1028.0
COVE POINT MD    0142   51      10/  2/  5 1028.3R
SOLOMONS ISLAND  0142   50 53  250/  2/  3 1027.4R
BISHOPS HEAD MD  0142   51 54   CALM  /  1 1028.0R
PINEY POINT MD   0142          150/  1/  1   N/A
POTOMAC MD       0200   51 52   CALM  /  2 1029.0    0
CAMBRIDGE MD     0142   49 54              1028.3R
LEWISETTA VA     0142   50 52  270/  2/  2 1027.7R
RAPPAHANNOCK LGT 0142           80/  6/  7 1028.3R
YORK RVR RNG VA  0142   52     100/  5/  6 1028.3R
YORKTOWN VA      0142   50 56  170/  3/  4 1027.4R
DOMINION TERM VA 0142   52      CALM  /  3 1027.9R
KIPTOPEKE VA     0142      54  150/  1/  2   N/A
CAPE HENRY VA    0142   49     180/  4/  4   N/A
WILLOUBY STN VA  0142   53      50/  6/  7 1027.6R
S CRANEY ISL VA  0142   52     130/  4/  6 1027.6R
CAPE HENRY BUOY  0200      50                N/A     2/ 7
64NM E OF VA BCH 0150   47 48   70/  2/  2 1028.3R   4/ 8   3/ 8
DUCK PIER NC     0142   48 52  110/  8/ 10 1027.5R
44100 DUCK FRF   0145      50                N/A     3/ 6
44056 DUCK FRF   0130      51                N/A     3/ 6
OREGON INLET NC  0142   47 54   60/  7/ 11 1027.8R
HATTERAS NC      0142   49 61   70/  5/  6 1027.8R
DIAMOND SHLS NC  0200   54 70   40/ 12/ 16 1028.0
CAPE LOOKOUT NC  0200           60/  8/  9 1027.8R
$$



USA.gov is the U.S. government's official web portal to all federal, state and local government web resources and services.